When you browse on this site, cookies collect data to enhance your experience and personalize the content and advertising you see.
Visit our Privacy Policy to learn more. By continuing to use the site, you agree to this use of cookies and data.
EN

Hourly Weather Aldeia de Paio Pires

Today, 6 August, Thursday

Time Temperature Precipitation Wind Pressure Humidity
00:00 +21°C° 0 mm 2 mps 756 mmHg 63%
01:00 +20°C° 0 mm 2 mps 755 mmHg 64%
02:00 +20°C° 0 mm 2 mps 755 mmHg 65%
03:00 +20°C° 0 mm 2 mps 755 mmHg 67%
04:00 +20°C° 0 mm 2 mps 755 mmHg 69%
05:00 +19°C° 0 mm 2 mps 755 mmHg 70%
06:00 +23°C° 0 mm 1 mps 756 mmHg 61%
07:00 +26°C° 0 mm 1 mps 756 mmHg 52%
08:00 +29°C° 0 mm 1 mps 756 mmHg 43%
09:00 +30°C° 0 mm 2 mps 756 mmHg 39%
10:00 +33°C° 0 mm 3 mps 756 mmHg 35%
11:00 +35°C° 0 mm 3 mps 756 mmHg 31%
12:00 +35°C° 0 mm 4 mps 756 mmHg 32%
13:00 +35°C° 0 mm 4 mps 756 mmHg 32%
14:00 +35°C° 0 mm 5 mps 756 mmHg 33%
15:00 +34°C° 0 mm 5 mps 756 mmHg 35%
16:00 +33°C° 0 mm 5 mps 756 mmHg 38%
17:00 +32°C° 0 mm 5 mps 756 mmHg 41%
18:00 +28°C° 0 mm 5 mps 757 mmHg 48%
19:00 +26°C° 0 mm 4 mps 757 mmHg 56%
20:00 +23°C° 0 mm 4 mps 757 mmHg 63%
21:00 +22°C° 0 mm 3 mps 757 mmHg 67%
22:00 +21°C° 0 mm 3 mps 758 mmHg 70%
23:00 +21°C° 0 mm 2 mps 758 mmHg 74%

Tomorrow, 7 August, Friday

Time Temperature Precipitation Wind Pressure Humidity
00:00 +20°C° 0 mm 2 mps 758 mmHg 77%
01:00 +20°C° 0 mm 3 mps 758 mmHg 79%
02:00 +19°C° 0 mm 3 mps 757 mmHg 82%
03:00 +19°C° 0 mm 3 mps 758 mmHg 84%
04:00 +19°C° 0 mm 2 mps 758 mmHg 86%
05:00 +19°C° 0 mm 2 mps 759 mmHg 88%
06:00 +21°C° 0 mm 3 mps 759 mmHg 78%
07:00 +24°C° 0 mm 3 mps 759 mmHg 68%
08:00 +26°C° 0 mm 4 mps 759 mmHg 58%
09:00 +28°C° 0 mm 4 mps 760 mmHg 50%
10:00 +32°C° 0 mm 4 mps 760 mmHg 43%
11:00 +34°C° 0 mm 4 mps 760 mmHg 35%
12:00 +34°C° 0 mm 5 mps 760 mmHg 35%
13:00 +34°C° 0 mm 6 mps 759 mmHg 35%
14:00 +35°C° 0 mm 6 mps 759 mmHg 35%
15:00 +33°C° 0 mm 7 mps 759 mmHg 39%
16:00 +30°C° 0 mm 7 mps 759 mmHg 44%
17:00 +29°C° 0 mm 8 mps 759 mmHg 49%
18:00 +27°C° 0 mm 7 mps 760 mmHg 59%
19:00 +24°C° 0 mm 7 mps 760 mmHg 69%
20:00 +22°C° 0 mm 6 mps 760 mmHg 79%
21:00 +21°C° 0 mm 5 mps 760 mmHg 83%
22:00 +20°C° 0 mm 5 mps 761 mmHg 87%
23:00 +20°C° 0 mm 4 mps 761 mmHg 91%

Day after tomorrow, 8 August, Saturday

Time Temperature Precipitation Wind Pressure Humidity
00:00 +20°C° 0 mm 4 mps 761 mmHg 91%
01:00 +19°C° 0 mm 3 mps 761 mmHg 92%
02:00 +19°C° 0 mm 3 mps 761 mmHg 92%
03:00 +19°C° 0 mm 3 mps 760 mmHg 92%
04:00 +19°C° 0 mm 3 mps 760 mmHg 92%
05:00 +19°C° 0 mm 3 mps 760 mmHg 91%
06:00 +21°C° 0 mm 3 mps 761 mmHg 81%
07:00 +24°C° 0 mm 3 mps 761 mmHg 70%
08:00 +26°C° 0 mm 3 mps 761 mmHg 59%
09:00 +28°C° 0 mm 4 mps 761 mmHg 52%
10:00 +30°C° 0 mm 5 mps 761 mmHg 46%
11:00 +33°C° 0 mm 5 mps 761 mmHg 39%
12:00 +33°C° 0 mm 6 mps 760 mmHg 38%
13:00 +33°C° 0 mm 6 mps 760 mmHg 37%
14:00 +33°C° 0 mm 7 mps 760 mmHg 36%
15:00 +32°C° 0 mm 7 mps 760 mmHg 40%
16:00 +29°C° 0 mm 7 mps 760 mmHg 44%
17:00 +28°C° 0 mm 7 mps 759 mmHg 48%
18:00 +26°C° 0 mm 7 mps 760 mmHg 58%
19:00 +23°C° 0 mm 6 mps 760 mmHg 68%
20:00 +21°C° 0 mm 6 mps 760 mmHg 78%
21:00 +20°C° 0 mm 5 mps 760 mmHg 82%
22:00 +20°C° 0 mm 5 mps 760 mmHg 86%
23:00 +19°C° 0 mm 4 mps 760 mmHg 90%

9 August, Sunday

Time Temperature Precipitation Wind Pressure Humidity
00:00 +19°C° 0 mm 4 mps 760 mmHg 91%
01:00 +19°C° 0 mm 4 mps 759 mmHg 91%
02:00 +19°C° 0 mm 4 mps 759 mmHg 91%
03:00 +19°C° 0 mm 3 mps 759 mmHg 92%
04:00 +18°C° 0 mm 3 mps 759 mmHg 92%
05:00 +18°C° 0 mm 3 mps 759 mmHg 92%
06:00 +20°C° 0 mm 4 mps 759 mmHg 82%
07:00 +22°C° 0 mm 4 mps 759 mmHg 73%
08:00 +25°C° 0 mm 4 mps 760 mmHg 64%
09:00 +26°C° 0 mm 5 mps 759 mmHg 58%
10:00 +28°C° 0 mm 5 mps 759 mmHg 52%
11:00 +30°C° 0 mm 6 mps 759 mmHg 45%
12:00 +30°C° 0 mm 7 mps 759 mmHg 46%
13:00 +30°C° 0 mm 7 mps 759 mmHg 46%
14:00 +31°C° 0 mm 8 mps 758 mmHg 46%
15:00 +28°C° 0 mm 8 mps 758 mmHg 52%
16:00 +27°C° 0 mm 8 mps 758 mmHg 57%
17:00 +24°C° 0 mm 8 mps 758 mmHg 62%
18:00 +22°C° 0 mm 7 mps 759 mmHg 70%
19:00 +21°C° 0 mm 7 mps 759 mmHg 77%
20:00 +19°C° 0 mm 6 mps 759 mmHg 84%
21:00 +19°C° 0 mm 6 mps 759 mmHg 86%
22:00 +19°C° 0 mm 6 mps 759 mmHg 87%
23:00 +19°C° 0 mm 5 mps 759 mmHg 89%

10 August, Monday

Time Temperature Precipitation Wind Pressure Humidity
00:00 +19°C° 0 mm 5 mps 759 mmHg 89%
01:00 +17°C° 0 mm 5 mps 758 mmHg 89%
02:00 +18°C° 0 mm 4 mps 758 mmHg 89%
03:00 +17°C° 0 mm 5 mps 758 mmHg 89%
04:00 +17°C° 0 mm 5 mps 758 mmHg 89%
05:00 +17°C° 0 mm 5 mps 758 mmHg 89%
06:00 +20°C° 0 mm 5 mps 758 mmHg 82%
07:00 +21°C° 0 mm 4 mps 758 mmHg 75%
08:00 +23°C° 0 mm 4 mps 758 mmHg 68%
09:00 +26°C° 0 mm 5 mps 758 mmHg 61%
10:00 +27°C° 0 mm 5 mps 758 mmHg 55%
11:00 +29°C° 0 mm 5 mps 758 mmHg 49%
12:00 +29°C° 0 mm 6 mps 757 mmHg 48%
13:00 +30°C° 0 mm 6 mps 757 mmHg 46%
14:00 +30°C° 0 mm 7 mps 757 mmHg 45%
15:00 +29°C° 0 mm 7 mps 757 mmHg 51%
16:00 +27°C° 0 mm 7 mps 757 mmHg 56%
17:00 +26°C° 0 mm 7 mps 757 mmHg 62%
18:00 +23°C° 0 mm 6 mps 757 mmHg 71%
19:00 +21°C° 0 mm 6 mps 757 mmHg 81%
20:00 +19°C° 0 mm 5 mps 758 mmHg 90%
21:00 +19°C° 0 mm 4 mps 757 mmHg 91%
22:00 +18°C° 0 mm 4 mps 757 mmHg 92%
23:00 +18°C° 0 mm 3 mps 757 mmHg 93%

11 August, Tuesday

Time Temperature Precipitation Wind Pressure Humidity
00:00 +18°C° 0 mm 3 mps 757 mmHg 93%
01:00 +18°C° 0 mm 3 mps 757 mmHg 94%
02:00 +18°C° 0 mm 3 mps 756 mmHg 94%
03:00 +18°C° 0 mm 3 mps 757 mmHg 93%
04:00 +18°C° 0 mm 3 mps 757 mmHg 92%
05:00 +18°C° 0 mm 3 mps 757 mmHg 92%
06:00 +19°C° 0 mm 2 mps 757 mmHg 86%
07:00 +21°C° 0 mm 2 mps 757 mmHg 81%
08:00 +23°C° 0 mm 2 mps 757 mmHg 75%
09:00 +25°C° 0 mm 2 mps 757 mmHg 66%
10:00 +27°C° 0 mm 3 mps 757 mmHg 56%
11:00 +29°C° 0 mm 4 mps 757 mmHg 47%
12:00 +29°C° 0 mm 5 mps 757 mmHg 48%
13:00 +29°C° 0 mm 6 mps 757 mmHg 48%
14:00 +28°C° 0 mm 7 mps 756 mmHg 49%
15:00 +27°C° 0 mm 7 mps 756 mmHg 54%
16:00 +26°C° 0 mm 7 mps 757 mmHg 59%
17:00 +24°C° 0 mm 7 mps 757 mmHg 64%
18:00 +22°C° 0 mm 6 mps 757 mmHg 70%
19:00 +21°C° 0 mm 6 mps 757 mmHg 77%
20:00 +20°C° 0 mm 5 mps 758 mmHg 84%
21:00 +19°C° 0 mm 5 mps 758 mmHg 85%
22:00 +19°C° 0 mm 5 mps 758 mmHg 86%
23:00 +19°C° 0 mm 4 mps 758 mmHg 87%
Show more